Powrót do katalogu

STARLINK-35694

AktywnyŁącznośćVLEO
NORAD 66389·PAYLOAD·🇺🇸 United States

Wystrzelony Nov 8, 2025 z Cape Canaveral Space Force Station

Loading…

Następne Przeloty (najbliższe 24 godziny)

TLE

ŚwieżeSource: CelesTrak SupGP

Epoka: Sep 15, 2026, 03:16 UTC

1 66389C 25257K   26258.13659722 -.00019599  00000+0 -57918-3 0  2586
2 66389  53.1599  54.8868 0001179  87.3815 117.3550 15.34394382    10

Śledź STARLINK-35694 w czasie rzeczywistym z AllMySat

Download on the App Store